This is the latest recevied weather packets stored in our database for station/object N3WPH. If no packets are shown the sender has not sent any weather packets the latest 10 day(s).
| Time | Temp. | Humidity | Pressure | Rain* | Wind** | Luminosity | Snow |
|---|---|---|---|---|---|---|---|
| 1777908790 | 17.78° C | 38% | 1011.3 hPa | 0 mm | - | 709 W/m² | - |
| 1777908486 | 18.33° C | 38% | 1011.4 hPa | 0 mm | - | 716 W/m² | - |
| 1777908183 | 18.33° C | 41% | 1011.4 hPa | 0 mm | - | 702 W/m² | - |
| 1777907879 | 17.78° C | 39% | 1011.5 hPa | 0 mm | - | 695 W/m² | - |
| 1777907575 | 17.22° C | 40% | 1011.6 hPa | 0 mm | - | 695 W/m² | - |
| 1777907270 | 16.67° C | 40% | 1011.6 hPa | 0 mm | - | 706 W/m² | - |
| 1777906968 | 16.67° C | 39% | 1011.5 hPa | 0 mm | - | 605 W/m² | - |
| 1777906665 | 17.22° C | 38% | 1011.8 hPa | 0 mm | - | 665 W/m² | - |
| 1777906361 | 17.22° C | 41% | 1011.9 hPa | 0 mm | - | 655 W/m² | - |
| 1777906058 | 16.67° C | 39% | 1011.9 hPa | 0 mm | - | 633 W/m² | - |
| 1777905754 | 16.67° C | 41% | 1011.8 hPa | 0 mm | - | 621 W/m² | - |
| 1777905452 | 16.67° C | 38% | 1011.8 hPa | 0 mm | - | 619 W/m² | - |
| 1777905149 | 16.67° C | 41% | 1011.7 hPa | 0 mm | - | 598 W/m² | - |
| 1777904846 | 16.67° C | 40% | 1011.8 hPa | 0 mm | - | 597 W/m² | - |
| 1777904544 | 16.67° C | 43% | 1011.7 hPa | 0 mm | - | 580 W/m² | - |
| 1777904240 | 16.11° C | 42% | 1011.7 hPa | 0 mm | - | 571 W/m² | - |
| 1777903937 | 16.11° C | 41% | 1011.8 hPa | 0 mm | - | 552 W/m² | - |
| 1777903634 | 16.11° C | 44% | 1011.9 hPa | 0 mm | - | 541 W/m² | - |
| 1777903329 | 16.11° C | 44% | 1012.2 hPa | 0 mm | - | 525 W/m² | - |
| 1777903027 | 15.56° C | 46% | 1012.2 hPa | 0 mm | - | 516 W/m² | - |
| 1777902723 | 15° C | 44% | 1011.9 hPa | 0 mm | - | 498 W/m² | - |
| 1777902420 | 14.44° C | 45% | 1012.1 hPa | 0 mm | - | 493 W/m² | - |
| 1777902116 | 13.33° C | 46% | 1012.3 hPa | 0 mm | - | 386 W/m² | - |
| 1777901816 | 13.89° C | 47% | 1012.3 hPa | 0 mm | - | 335 W/m² | - |
| 1777901512 | 13.33° C | 48% | 1012.4 hPa | 0 mm | - | 454 W/m² | - |
* Rain latest hour (hover to see other rain measurements)
** Current wind speed in m/s (hover to see current wind gust speed)